Regional Weather Roundup
Issued by NWS

Home | Current Version | Previous Version | Text Only | Print | Product List | Glossary Off
Versions: 1 2 3 4 5 6 7 8 9 10 11 12 13 14 15 16 17 18 19 20 21 22 23 24 25 26 27 28 29 30 31 32 33 34 35 36 37 38 39 40 41 42 43 44 45 46 47 48 49 50

000
ASUS43 KMKX 221111
RWRWI

WISCONSIN REGIONAL WEATHER ROUNDUP
NATIONAL WEATHER SERVICE MILWAUKEE/SULLIVAN WI
600 AM CDT SUN OCT 22 2017

NOTE: "FAIR" INDICATES FEW OR NO CLOUDS BELOW 12,000 FEET WITH NO
SIGNIFICANT WEATHER AND/OR OBSTRUCTIONS TO VISIBILITY.

WIZ001-002-006>008-014>016-023>028-221200-
NORTHWEST WISCONSIN

CITY           SKY/WX    TMP DP  RH WIND       PRES   REMARKS
SUPERIOR ARPT  MOCLDY    47  44  88 SW9       29.81R
ASHLAND        CLOUDY    50  45  83 SW12      29.81R
HAYWARD        CLOUDY    49  43  80 SW7       29.85R
SIREN          CLOUDY    47  41  80 W10       29.88R
CUMBERLAND     MOCLDY    46  41  81 W12       29.88R
RICE LAKE      MOCLDY    49  43  80 SW7       29.90R
CHETEK         MOCLDY    49  44  83 W6        29.89R
LADYSMITH      CLOUDY    50  46  87 SW7       29.89R
EAU CLAIRE     CLOUDY    50  46  86 SW7       29.91R
MENOMONIE      CLOUDY    51  44  77 W9        29.91R
NEW RICHMOND   NOT AVBL
OSCEOLA        CLOUDY    49  42  77 W7        29.93R
$$

WIZ003>005-009-010-017-018-221200-
NORTH CENTRAL WISCONSIN

CITY           SKY/WX    TMP DP  RH WIND       PRES   REMARKS
MANITOWISH WTR CLOUDY    50  50 100 SW8       29.83R
ARBOR VITAE    CLOUDY    52  50  95 W9        29.84R
WOODRUFF       CLOUDY    52  50  95 W9        29.84R
RHINELANDER    LGT RAIN  53  53 100 W13       29.85R
EAGLE RIVER    NOT AVBL
LAND O LAKES   CLOUDY    60  59  96 S9        29.81R FOG
PHILLIPS       CLOUDY    49  49 100 SW10      29.85R
TOMAHAWK       CLOUDY    51  49  95 W5        29.86R
MEDFORD        CLOUDY    50  48  93 W6        29.87R
MERRILL        CLOUDY    53  52  99 W10G17    29.86R
$$

WIZ029-030-035-036-043>047-221200-
CENTRAL WISCONSIN

CITY           SKY/WX    TMP DP  RH WIND       PRES   REMARKS
WAUSAU         CLOUDY    53  52  96 W9        29.86R
MOSINEE        CLOUDY    54  52  94 W12G18    29.88R
MARSHFIELD     LGT RAIN  52  48  86 W9        29.88R
STEVENS POINT  CLOUDY    54  53  97 W10G20    29.88R
WAUPACA        CLOUDY    65  59  81 CALM      29.85S
WAUTOMA        CLOUDY   N/A N/A N/A SW10      29.87R
WISC RAPIDS    CLOUDY    54  52  93 W10       29.89R
CAMP DOUGLAS   NOT AVBL
$$

WIZ011>013-019>022-031-037>040-048>050-221200-
NORTHEAST WISCONSIN

CITY           SKY/WX    TMP DP  RH WIND       PRES   REMARKS
ANTIGO         CLOUDY    59  57  94 S12G18    29.85R
SHAWANO        CLOUDY    66  58  74 S5        29.84R
OCONTO         MOCLDY    61  56  85 S7        29.84F
STURGEON BAY   CLOUDY    60  54  80 S18G24    29.87S
GREEN BAY      CLOUDY    65  59  81 S12       29.85S
MANITOWOC      CLOUDY    59  53  80 S10       29.90S
APPLETON       CLOUDY    64  54  68 S15       29.84S
CLINTONVILLE   CLOUDY    64  55  72 S8        29.84R
OSHKOSH        CLOUDY    64  58  80 S10       29.86R
$$

WIZ032>034-041-042-053>061-221200-
SOUTHWEST WISCONSIN

CITY           SKY/WX    TMP DP  RH WIND       PRES   REMARKS
LA CROSSE      LGT RAIN  53  49  86 W7        29.94R
SPARTA         DRIZZLE   50  50  99 W8        29.93R
VIROQUA        CLOUDY    50  50 100 W9        29.92R
BOSCOBEL       LGT RAIN  55  51  86 W5        29.92R
PRAIRIE DU CHI LGT RAIN  53  49  89 W5        29.94R
PLATTEVILLE    CLOUDY    54  54 100 NW10      29.91R
$$

WIZ056-057-062-063-064-067-068-221200-
SOUTH CENTRAL WISCONSIN

CITY           SKY/WX    TMP DP  RH WIND       PRES   REMARKS
REEDSBURG      CLOUDY    55  55 100 NW9       29.88R
BARABOO/DELLS  CLOUDY    60  57  89 W6        29.87S
LONE ROCK      LGT RAIN  56  54  93 NW13      29.89R
MINERAL POINT  CLOUDY    55  55 100 NW12G17   29.89R
MADISON        CLOUDY    66  57  72 S8        29.86R
MIDDLETON      CLOUDY    64  59  82 SW6       29.87S
WATERTOWN      LGT RAIN  62  62 100 S8        29.89S
MONROE         CLOUDY    63  55  77 S3        29.88S
JANESVILLE     CLOUDY    63  63 100 S6        29.88F
$$

WIZ051-052-058>065-066-070>072-221200-
SOUTHEAST WISCONSIN

CITY           SKY/WX    TMP DP  RH WIND       PRES   REMARKS
MILWAUKEE      MOCLDY    60  56  86 SE7       29.92R
WAUKESHA       CLOUDY    64  55  72 S9        29.92R
MILWAUKEE/TIMM MOCLDY    64  52  63 S8        29.91S
RACINE         MOCLDY    60  56  86 S12       29.93S
BURLINGTON     MOCLDY    63  58  83 S5        29.91S
KENOSHA        CLOUDY    67  57  70 S13       29.92S
FOND DU LAC    CLOUDY    67  56  67 S13       29.87R
SHEBOYGAN      CLOUDY    59  56  89 S10       29.90S
WEST BEND      CLOUDY    64  54  68 S8        29.91R
JUNEAU         RAIN      63  59  85 SE10      29.89S
$$

LSZ147-162-221200-
LAKE SUPERIOR

STATION/POSITION TIME  TEMP    WIND        PRES    WAVE
                       AIR SEA DIR/SP/G            HT/PER
                 (UTC) (F)     (DEG/KT/KT) (MB)    (FT/S)
W MID LAKE BUOY  0950   54 52              1006.3R   3/ 4
DEVILS ISLAND    1100   53     240/ 24/ 31 1008.4R
PORT WING        0840          230/  9/ 12 1007.8
SAXON HARBOR     1040   55     240/  7/ 17 1008.8R
$$

LMZ867-665-643>646-221200-
LAKE MICHIGAN

STATION/POSITION TIME  TEMP    WIND        PRES    WAVE
                       AIR SEA DIR/SP/G            HT/PER
                 (UTC) (F)     (DEG/KT/KT) (MB)    (FT/S)
S GREEN BAY BUOY 1100   62 58  170/ 14/ 17 1010.5
N MID LAKE BUOY  1050   62 58  180/ 19/ 23 1012.1F   6/ 7
NORTHPORT PIER   1040   60     160/  9/ 17 1011.5S
KEWAUNEE LAKESHO 1042   56     180/ 14/ 17 1011.4F
SHEBOYGAN LAKESH 1100   58     190/ 20/ 22 1012.3F
PORT WASHINGTON  1030   55     200/  5/  8 1013.9S
ATWATER BUOY     0909   57 52  150/ 16/ 19 1012.9F
MILWAUKEE LAKESH 1050   56     150/  9/  9   N/A
S MID LAKE BUOY  0950   63 60  150/ 19/ 21 1014.2F   3/ 5
KENOSHA   LAKESH 1100   59     180/ 12/ 21 1012.9
$$

TC  - TEMPERATURE IN CELSIUS
VSB - VISIBILITY IN STATUTE MILES
WCI - WIND CHILL INDEX
HX  - HEAT INDEX





USA.gov is the U.S. government's official web portal to all federal, state and local government web resources and services.